Regional Weather Roundup
Issued by NWS

Home | Current Version | Previous Version | Graphics & Text | Print | Product List | Glossary On
Versions: 1 2 3 4 5 6 7 8 9 10 11 12 13 14 15 16 17 18 19 20 21 22 23 24 25 26 27 28 29 30 31 32 33 34 35 36 37 38 39 40 41 42 43 44 45 46 47 48 49 50
000
ASUS43 KTOP 292159
RWRKS

WEATHER ROUNDUP FOR KANSAS
NATIONAL WEATHER SERVICE GOODLAND KS
500 PM CDT SUN MAY 29 2016

NOTE:  "FAIR" INDICATES FEW OR NO CLOUDS BELOW 12,000 FEET WITH NO
SIGNIFICANT WEATHER AND/OR OBSTRUCTIONS TO VISIBILITY.

KSZ001>006-013>018-027>032-041>047-292300-
NORTHWEST KANSAS

CITY           SKY/WX    TMP DP  RH WIND       PRES   REMARKS
GOODLAND       CLOUDY    83  49  30 CALM      29.97F
HAYS           CLOUDY    81  61  50 SW7       30.02S
HILL CITY      CLOUDY    78  51  38 SW17G26   29.99F
RUSSELL        CLOUDY    82  59  45 S8        30.01S
$$

KSZ061>065-074>080-084>089-292300-
SOUTHWEST KANSAS

CITY           SKY/WX    TMP DP  RH WIND       PRES   REMARKS
DODGE CITY     CLOUDY    78  51  38 S17G23    30.04R
ELKHART          N/A    N/A N/A N/A MISG        N/A
GARDEN CITY    CLOUDY    77  48  35 S25G35    30.03F
GREAT BEND     CLOUDY    82  57  42 SW7       30.02R
LIBERAL        CLOUDY    70  52  52 S32G39    30.05S
$$

KSZ066>073-081>083-090>101-292300-
SOUTHEAST KANSAS

CITY           SKY/WX    TMP DP  RH WIND       PRES   REMARKS
CHANUTE        CLOUDY    79  69  71 CALM      30.07F
COFFEYVILLE    CLOUDY    79  71  76 N5        30.06R
HUTCHINSON     SUNNY     86  59  39 SE12      30.04R
MEDICINE LODGE   N/A     82  54  37 SE7       30.02R
NEWTON         SUNNY     81  57  44 SE15      30.08S
PARSONS        CLOUDY    76  70  82 CALM      30.08S
WICHITA INTL   PTSUNNY   81  61  50 E15       30.04S
WICHITA JABRA  LGT RAIN  71  60  68 E7        30.06R
WINFIELD       CLOUDY    79  63  57 NE18G25   30.08S
$$

KSZ007>012-019>026-033>040-048>060-102>105-292300-
NORTHEAST KANSAS

CITY           SKY/WX    TMP DP  RH WIND       PRES   REMARKS
CONCORDIA      CLOUDY    82  59  45 SE9       30.01F
EMPORIA        MOSUNNY   84  65  52 S13       30.06F
LAWRENCE       CLOUDY    83  59  44 S6        30.05F
MANHATTAN      TSTM      69  62  78 S6        30.03F
OLATHE IND     CLOUDY    83  56  39 S8        30.07F
OLATHE EXE     CLOUDY    81  57  43 S7        30.07F
SALINA         CLOUDY    72  62  71 S16       30.02F
TOPEKA BILLARD CLOUDY    82  60  47 S5        30.04F
TOPEKA FORBES  CLOUDY    82  63  52 S5        30.05F
$$



USA.gov is the U.S. government's official web portal to all federal, state and local government web resources and services.